Location: Arbon
(43.0005°N, 0.7472°E)
Time: 22:45:49
(UTC+00:00)

Explorer 7 - Pass Details

Date: 01 December 2020
Orbit: 484 x 678 km, 50.3° (Epoch: 25 January)

Event Time Altitude Azimuth Distance (km) Brightness Sun altitude
Rises 04:44:06 0° 295° (WNW) 2,837 - -25.8°
Reaches altitude 10° 04:46:38 10° 305° (NW) 1,898 - -25.4°
Maximum altitude 04:50:34 34° 10° (N) 934 - -24.6°
Exits shadow 04:50:54 33° 21° (NNE) 941 8.0 -24.6°
Drops below altitude 10° 04:54:18 10° 77° (ENE) 1,786 10.3 -24.0°
Sets 04:56:36 0° 87° (E) 2,643 11.7 -23.6°
